sat.trackr.live / text

‹ back to catalog

INTELSAT 906 (IS-906)

NORAD 27513 · 2002-041A

PAYLOAD ACTIVE UNKNOWN

§ Identity

Operator
Country
ITSO
Launch date
2002-09-06
Launch site
FRGUI
Launch vehicle
Mass (kg)
RCS (m²)
22.30

Purposes: comms

External: N2YO · Heavens-Above · Gunter

§ Orbital elements

Epoch: 2026-09-19T22:24:35.028864Z

Period
1,436.11 min
Inclination
6.0371°
Eccentricity
0.0003186
Mean motion
1.00271084 rev/d
Perigee alt
35,773.4 km
Apogee alt
35,800.2 km
Semi-major
42,164.9 km
B*
0.0000e+0
RAAN
71.7102°
Arg perigee
125.0862°
Mean anomaly
202.3442°
Rev number
8,797

§ Raw data

INTELSAT 906 (IS-906)1 27513U 02041A   26262.93373876  .00000011  00000+0  00000+0 0  99992 27513   6.0371  71.7102 0003186 125.0862 202.3442  1.00271084 87978

JSON: /api/v1/satellites/27513 · /tle

For live sub-satellite position, see the globe view (requires WebGL).

§ Visibility from observer

Set your observer location to see the next 7 days of passes ≥ 10°. The values pass through the URL so the page stays shareable.

No JS? Fill the form by hand. The geolocation button needs JavaScript.